Location: Ferchesar
(52.6477°N, 12.4298°E)
Time: 21:28:50
(UTC+02:00)

A-11 Canister half - Pass Details

Date: 09 March 2021
Orbit: 1525 x 1683 km, 47.3° (Epoch: 11 April)

Event Time Altitude Azimuth Distance (km) Brightness Sun altitude
Exits shadow 05:51:13 - 260° (W) 3,912 10.4 -8.0°
Reaches altitude 10° 05:51:34 10° 260° (W) 3,803 10.4 -7.9°
Maximum altitude 06:01:01 65° 182° (S) 1,692 9.3 -6.5°
Drops below altitude 10° 06:10:12 10° 104° (ESE) 3,704 12.7 -5.1°
Sets 06:13:14 0° 101° (E) 4,678 13.8 -4.7°
